Regional Weather Roundup
Issued by NWS

Home | Current Version | Previous Version | Graphics & Text | Print | Product List | Glossary On
Versions: 1 2 3 4 5 6 7 8 9 10 11 12 13 14 15 16 17 18 19 20 21 22 23 24 25 26 27
000
ASUS45 KBOU 290207
RWRCO

WEATHER ROUNDUP FOR COLORADO
NATIONAL WEATHER SERVICE DENVER/BOULDER CO
800 PM MDT TUE MAR 28 2017

NOTE: "FAIR" INDICATES FEW OR NO CLOUDS BELOW 12000 FEET WITH NO
SIGNIFICANT WEATHER AND/OR OBSTRUCTIONS TO VISIBILITY.

COZ001>005-013-030-031-290300-
...NORTHWEST COLORADO...

CITY           SKY/WX    TMP DP  RH WIND       PRES   REMARKS
CRAIG          CLOUDY    41  31  67 N16       30.04R
HAYDEN         FAIR      41  28  60 N9        30.03R
MEEKER         LGT RAIN  42  33  70 N12G21    30.04R
MOUNT WERNER   NOT AVBL
STEAMBOAT SPGS CLOUDY    38  36  91 CALM      30.02R
WALDEN         NOT AVBL
$$

COZ006>008-011-290300-
...WEST CENTRAL VALLEYS...

CITY           SKY/WX    TMP DP  RH WIND       PRES   REMARKS
GRAND JUNCTION CLOUDY    49  39  68 NW14      29.97R
MONTROSE       CLOUDY    45  36  70 NW23G30   29.94R
EAGLE          CLOUDY    43  34  70 CALM      30.00R
RIFLE          CLOUDY    47  35  63 NW16      29.98R
DELTA          FAIR      51  35  53 W13G23    29.91R
NUCLA          CLOUDY    45  32  61 NW14      29.98R
$$

COZ017>023-064>068-290300-
...SOUTHWEST COLORADO...

CITY           SKY/WX    TMP DP  RH WIND       PRES   REMARKS
DURANGO        FAIR      39  34  82 E8        29.82R
CORTEZ         FAIR      45  34  65 N12G20    29.89R
PAGOSA SPRINGS CLOUDY    39  36  89 CALM      29.87R
TELLURIDE      LGT SNOW  34  31  88 W12G23    29.95S WCI  25
WOLF CREEK PAS CLOUDY    23  23 100 N9G16     29.97S VSB 1/2 WCI  13
$$

COZ009-010-012-014-032>034-037-058>063-290300-
...CENTRAL COLORADO...

CITY           SKY/WX    TMP DP  RH WIND       PRES   REMARKS
ASPEN          LGT RAIN  37  33  85 W10       29.95R
BUENA VISTA    LGT RAIN  36  33  88 CALM      29.95R
COPPER MTN     CLOUDY    28  23  80 MISG      30.02S
BERTHOUD PASS  SNOW      19   9  63 MISG      30.06R VSB 1/4
COTTONWOOD PAS LGT SNOW  32  32 100 E3        29.98R
GUNNISON       LGT RAIN  36  34  92 SE5       29.92R
KREMMLING      CLOUDY    43  34  70 N7        30.01R
LEADVILLE      LGT SNOW  29  26  89 N12       29.96S FOG     WCI  19
MONARCH PASS   CLOUDY    25  23  93 NE39      30.01F WCI   6
SALIDA         CLOUDY    40  34  78 CALM      30.00R
SUNLIGHT       LGT SNOW N/A N/A N/A MISG      30.09R VSB 1
WILKERSON PASS LGT SNOW  27  23  86 NE6G18    30.02R WCI  20
$$

COZ069>075-290300-
...SAN LUIS VALLEY/SANGRE DE CRISTO MOUNTAINS...

CITY           SKY/WX    TMP DP  RH WIND       PRES   REMARKS
ALAMOSA        LGT RAIN  38  36  92 W9        29.86R
LA VETA PASS   NOT AVBL
SAGUACHE       CLOUDY    37  34  87 NW14      29.88R
$$

COZ035-036-038>040-290300-
...NORTHERN COLORADO FRONT RANGE...

CITY           SKY/WX    TMP DP  RH WIND       PRES   REMARKS
DENVER INTL AP LGT RAIN  41  39  93 NW22      29.95R VSB 1/4
DMNS CITY PARK   N/A     41  36  84 N12G29    29.97S
AURORA         LGT RAIN  39  39 100 N23G33    29.95S FOG
FRONT RANGE AP RAIN      45  43  93 NW17      29.95R
ERIE MUNI ARPT CLOUDY    41  37  86 N21G30    29.99R
BOULDER MUN AP CLOUDY    41  37  87 N10       30.00R
CENTENNIAL     LGT RAIN  38  38 100 N25G33    29.95R FOG
BROOMFIELD     DRIZZLE   41  37  87 N14G25    29.99R
FORT COLLINS   LGT RAIN  40  38  93 N22       30.01R
LONGMONT       CLOUDY    44  38  79 N16       30.02R
$$

COZ041-046-047-076>085-087-088-290300-
...PIKES PEAK/PALMER DIVIDE AND SOUTHERN FOOTHILLS...

CITY           SKY/WX    TMP DP  RH WIND       PRES   REMARKS
COLO. SPRINGS  LGT RAIN  39  36  89 NE9       29.95R
A. F. ACADEMY  NOT AVBL
SCHRIEVER AFB  LGT RAIN  38  37  97 N12       29.95R
ELLICOTT       MIX PCPN N/A N/A N/A NE5       29.93R
FALCON         LGT SNOW  33  33  97 NE7       29.96R WCI  27
FORT CARSON    LGT RAIN  40  38  94 N8        29.94R
LIMON          CLOUDY    39  39 100 SE8       29.94R
MONUMENT HILL  FOG       34  34 100 N18       29.97R VSB 1/2 WCI  23
TRINIDAD       RAIN      43  41  93 E10       29.89R FOG
$$

COZ042>045-048>051-090-091-290300-
...NORTHEAST COLORADO...

CITY           SKY/WX    TMP DP  RH WIND       PRES   REMARKS
GREELEY ARPT   LGT RAIN  43  40  89 N20       30.00R
AKRON          LGT RAIN  38  36  92 E20       29.97R
BURLINGTON     CLOUDY    40  39  97 E13       29.96R
WRAY           DRIZZLE   41  41 100 E6        30.01R
STERLING       DRIZZLE   41  39  93 E8        30.00R
HOLYOKE        DRIZZLE   43  41  93 SE6       30.03S
FORT MORGAN    DRIZZLE   41  39  95 E15G22    29.98R
$$

COZ086-089-092>099-290300-
...SOUTHEAST COLORADO...

CITY           SKY/WX    TMP DP  RH WIND       PRES   REMARKS
PUEBLO         LGT RAIN  44  42  93 E12       29.90R FOG
LA JUNTA       CLOUDY    43  41  93 E15       29.91R FOG
LAMAR          CLOUDY    44  42  93 E13       29.88R FOG
SPRINGFIELD      N/A     41  41 100 E13       29.85S
$$




USA.gov is the U.S. government's official web portal to all federal, state and local government web resources and services.